Torna al catalogo

ATLAS 5 CENTAUR DEB

AttivoHEO
NORAD 46656·DEBRIS·🇺🇸 United States

Lanciato Oct 17, 2018 da Cape Canaveral Space Force Station

Loading…

Prossimi Passaggi (prossime 24 ore)

TLE

In scadenzaSource: Space-Track

Epoca: Sep 3, 2026, 08:53 UTC

1 46656U 18079CJ  26246.37070846 -.00000084  00000-0  00000+0 0  9999
2 46656  13.5611 352.2697 4543114  43.4262 344.4751  1.96958106 42495

Traccia ATLAS 5 CENTAUR DEB in tempo reale con AllMySat

Download on the App Store